Regional Weather Roundup
Issued by NWS

Home | Current Version | Previous Version | Text Only | Print | Product List | Glossary Off
Versions: 1 2 3 4 5 6 7 8 9 10 11 12 13 14 15 16 17 18 19 20 21 22 23 24 25 26 27 28 29 30 31 32 33 34 35 36 37 38 39 40 41 42 43 44 45 46 47 48 49 50

000
ASUS43 KDMX 190106
RWRIA

WEATHER ROUNDUP FOR IOWA
NATIONAL WEATHER SERVICE DES MOINES IA
800 PM CDT MON SEP 18 2017

NOTE: "FAIR" INDICATES FEW OR NO CLOUDS BELOW 12,000 FEET WITH NO
SIGNIFICANT WEATHER AND/OR OBSTRUCTIONS TO VISIBILITY.

* - THESE STATIONS ARE NOT NWS STATIONS...THUS NOT UNDER NWS
QUALITY CONTROL.  THEY ALSO DO NOT REPORT WEATHER SUCH
AS PRECIPITATION OR FOG.

IAZ001>003-012>014-020>022-031>034-043>046-190200-
   NORTHWEST IOWA

CITY           SKY/WX    TMP DP  RH WIND       PRES   REMARKS
CARROLL *      CLOUDY    68  66  94 CALM      29.92R
CHEROKEE *     CLOUDY    69  67  94 S6        29.89S
DENISON *      CLOUDY    68  66  94 SE5       29.92R
LE MARS *      CLOUDY    68  66  94 SE7       29.87S
ORANGE CITY *  PTCLDY    70  66  88 S5        29.88S
SHELDON *      PTCLDY    64  63  94 S6        29.87S
SIOUX CITY     CLOUDY    70  68  93 SE7       29.87S
SPENCER        MOCLDY    66  65  96 SE9       29.90S
STORM LAKE *   CLOUDY    68  64  88 S7        29.91S
$$

IAZ055>058-069>071-079>083-090>094-190200-
   SOUTHWEST IOWA

CITY           SKY/WX    TMP DP  RH WIND       PRES   REMARKS
ATLANTIC *     CLOUDY    68  64  88 CALM      29.92R
AUDUBON *      CLOUDY    66  63  88 CALM      29.94R
CLARINDA *     CLOUDY    70  68  94 SE7       29.93R
COUNCIL BLFS * CLOUDY    70  70 100 SE7       29.90R
CRESTON *      CLEAR     66 N/A N/A S6        29.95R
HARLAN  *      CLOUDY    68  66  94 SE3       29.94S
LAMONI         CLEAR     68  65  90 S7        29.94R
RED OAK *      CLOUDY    70  66  88 E7        29.90S
SHENANDOAH *   PTCLDY    68  66  94 E6        29.90S
$$

IAZ047>049-059>061-072>074-084-190200-
   CENTRAL IOWA

CITY           SKY/WX    TMP DP  RH WIND       PRES   REMARKS
AMES           CLOUDY    67  66  97 SE7       29.94R
ANKENY *       PTCLDY    66  64  94 CALM      29.95R
BOONE *        CLOUDY    68  64  88 CALM      29.93R
CHARITON *     CLEAR     66  66 100 E5        29.94S
DES MOINES     MOCLDY    69  66  90 SE6       29.93R
GRINNELL*      PTCLDY    65  63  94 CALM      29.97R FOG
KNOXVILLE *    CLEAR     66  66 100 SE7       29.93S
MARSHALLTOWN   PTCLDY    64  64 100 CALM      29.95R
NEWTON *       PTCLDY    64  64 100 CALM      29.96R FOG
PELLA *        CLEAR     66  64  96 SE3       29.95S FOG
PERRY *          N/A     65  64  97 SE5       29.93R
$$

IAZ004>006-015-016-023>025-035-036-190200-
   NORTH CENTRAL IOWA

CITY           SKY/WX    TMP DP  RH WIND       PRES   REMARKS
ALGONA *       CLOUDY    63  63 100 SE6       29.93R
CLARION *      CLOUDY    66  66 100 SE6       29.95R
ESTHERVILLE    CLOUDY    62  62 100 SE8       29.91S FOG
FORT DODGE *   CLOUDY    67  64  90 E7        29.93S
MASON CITY     CLOUDY    63  60  90 SE7       29.96R
FOREST CITY *  CLOUDY    63  61  94 SE5       29.94F
WEBSTER CITY * CLOUDY    66  64  94 SE5       29.92R
IOWA FALLS *     N/A     65  62  91 SE5       29.96R
$$

IAZ007>011-017>019-026>030-037>042-050>054-066-190200-
   NORTHEAST IOWA

CITY           SKY/WX    TMP DP  RH WIND       PRES   REMARKS
CEDAR RAPIDS   CLOUDY    66  65  96 CALM      29.95R
CHARLES CITY * CLOUDY    63  63 100 SE7       29.96S
CLINTON *      PTCLDY    71  64  78 SE6       29.95F
DECORAH *      CLOUDY    61  59  94 E5        29.97S
DUBUQUE        MOCLDY    69  59  70 E5        29.97F
MONTICELLO *   CLOUDY    70  63  78 E5        29.95S
OELWEIN *      CLOUDY    64  61  88 E7        29.97S
WATERLOO       MOCLDY    64  60  87 E3        29.95R
$$

IAZ064-065-067-068-078-190200-
   EAST CENTRAL IOWA

CITY           SKY/WX    TMP DP  RH WIND       PRES   REMARKS
DAVENPORT      PTCLDY    69  64  84 SW3       29.97R
IOWA CITY      CLOUDY    69  67  93 S3        29.95F
MT. PLEASANT * CLOUDY    68  68 100 SE6       29.94F
MUSCATINE *    DRIZZLE   68  66  94 NW3       29.95S
QUAD CITIES    CLOUDY    73  64  73 CALM      29.94R
$$

IAZ062-063-075>077-085>089-095>099-190200-
   SOUTHEAST IOWA

CITY           SKY/WX    TMP DP  RH WIND       PRES   REMARKS
BURLINGTON     CLOUDY    71  69  93 N3        29.94S
FAIRFIELD *    CLOUDY    70  66  88 N8        29.94R
FORT MADISON * CLOUDY    72  68  88 N3        29.95S
KEOKUK *       CLOUDY    70  68  94 E5        29.93F
OSKALOOSA *    CLOUDY    66  65  97 CALM      29.96S FOG
OTTUMWA        CLOUDY    68  67  96 NW3       29.96R
WASHINGTON *   CLOUDY    68  68 100 NE3       29.95S
$$

ABBREVIATIONS USED IN REMARKS
   TC - TEMPERATURES IN CELSIUS
  WCI - WIND CHILL INDEX
   HX - HEAT INDEX
  VSB - VISIBILITY
$$





USA.gov is the U.S. government's official web portal to all federal, state and local government web resources and services.